ARIANE 5 R/B, 32021

Orbit data source: Space-Track

ARIANE 5 R/B, 32021 is space debris in HEO originally from a launch on Tue, 14 Aug 2007 UTC launched from the French Guiana (FRGUI). Debris objects in space refer to the collection of defunct objects orbiting the Earth. Examples of debris include non-operational satellites, rocket bodies, and fragments generated from explosions, collisions, or faulty payload assembly.

Loading next visibility...
ARIANE 5 R/B details
Identifier
32021, 2007-036D
Orbit
HEO
Last TLE update19 hours ago
Origin
Flag of FRArianespace (FR)
ManufacturerEADS/LV
MissionSpacecraft
Bus & MotorESC-A, Unknown motor
Mass~5,000 kg wet, ~5,000 kg dry
Launch date (UTC)
2007-08-14 (17 years ago)
Launch vehicleUnknown
Launch site
French Guiana (FRGUI)
Object type
Payload
Rocket body
Debris
Shape & HBRCyl + 1 Nozzle, 7 m
Radar Cross Section41.627 m², Large (>1 m²)

Expand to show TLE details & history

TLE from 19 hours ago
0 ARIANE 5 R/B
1 32021U 07036D   25035.51513349  .00001971  00000-0  11549-2 0  9990
2 32021   2.2656 294.9142 7126143 232.5976  39.0494  2.45219620150411
Epoch: 2025-02-04T12:21Z
Definitive object data (Epoch: 2025-02-04T12:21:47.533Z)
Latitude0.00004°
Longitude-25.4605°
Altitude13,786.121 km
Speed4.73 km/s
True Right ascension19h 39m 37s
True Declination0° 00' 00"
Sunlit
Object was in daylight at TLE epoch
Visualization TLE readout
Latitude-2.2703°
Longitude-118.14909°
Altitude814.274 km
Speed9.678 km/s
Apparent Right ascension16h 11m 09s
Apparent Declination-32° 09' 37"
Sunlit
Object is in daylight
Visualization observer readout
Local Sidereal Time09:01:31
Azimuth106.92° ESE
Elevation-32.4°
Doppler factor1
Orbital elements
Apogee altitude33,413.697 km
Perigee altitude299.142 km
Semi-major axis23,234.557 km
Eccentricity0.7126143
Inclination2.2656°
RAAN294.9142°
Arg. of periapsis232.5976°
True anomaly127.27236°
Mean anomaly39.0494°
Eccentric anomaly79.14918°
Mean motion0.61283 °/min
BSTAR0.0011549
Orbital period587.44 mins
Loading maneuver chart data...
Loading historical data...
Loading historical data...
Loading historical data...
Loading historical data...
Loading historical data...
Loading historical data...
Loading historical data...
Other satellites on launch #36 in the year 2007 (2007-08-14 UTC)

ARIANE 5 R/B Visibility forecast

Observer location: undefined°, undefined

Span
Click to sort rows by Start time (UTC) header in descending order
Start Az.
Max El. time (UTC)
Max El. Az.
Max El.
End time (UTC)
End Az.
536 mins2025-02-05 17:07:15.292Z217.328° SW2025-02-05 21:04:15.292Z185.532° SSW35.336°2025-02-06 02:03:15.292Z148.977° SSE
|